Regional Weather Roundup
Issued by NWS

Home | Current Version | Previous Version | Text Only | Print | Product List | Glossary Off
Versions: 1 2 3 4 5 6 7 8 9 10 11 12 13 14 15 16 17 18 19 20 21 22 23 24 25 26 27 28 29 30 31 32 33 34 35 36 37 38 39 40 41 42 43 44 45 46 47 48 49 50

000
ASUS43 KMPX 241501
RWRMN
WEATHER ROUNDUP FOR MINNESOTA
NATIONAL WEATHER SERVICE TWIN CITIES/CHANHASSEN MN
1000 AM CDT THU APR 24 2014


NOTE: "FAIR" INDICATES FEW OR NO CLOUDS BELOW 12,000 FEET WITH NO
SIGNIFICANT WEATHER AND/OR OBSTRUCTIONS TO VISIBILITY. N/A MEANS
CURRENT SKY AND/OR WEATHER CONDITIONS ARE NOT AVAILABLE.

MNZ060>063-068>070-241600-
   Twin Cities Metro

CITY           SKY/WX    TMP DP  RH WIND       PRES   REMARKS
TWIN CITIES    RAIN      40  39  97 E12       29.77F
ST PAUL        RAIN      40  38  93 E9        29.79F FOG
CRYSTAL        RAIN      41  38  89 E8        29.77F FOG
EDEN PRAIRIE   LGT RAIN  41  39  93 E12       29.75S FOG
LAKEVILLE      RAIN      37  37 100 E9        29.75F
SOUTH ST PAUL  LGT RAIN  42  41  96 E8        29.78S
LAKE ELMO      RAIN      39  37  93 E7        29.80S
$$
MNZ001>005-007-008-013>017-022>024-027-028-241600-
   Northwest Minnesota

CITY           SKY/WX    TMP DP  RH WIND       PRES   REMARKS
BEMIDJI        CLOUDY    36  36  98 SE8       29.79S FOG
HALLOCK        LGT RAIN  39  37  93 SE10      29.77F
ROSEAU         CLOUDY    39  34  81 SE9       29.81F HAZE
WARROAD        MIX PCPN  37  34  87 SE8       29.82F
THIEF RVR FALL CLOUDY    37  34  87 SE9       29.79S
CROOKSTON      MIX PCPN  39  39 100 SE8       29.78S
FOSSTON        DRIZZLE   37  36  93 SE6       29.78S
DETROIT LAKES  RAIN      39  37  93 S7        29.78R
MOORHEAD       DRIZZLE   41  41 100 CALM      29.78R
PARK RAPIDS    CLOUDY    39  38  96 SE10      29.77R FOG
$$
MNZ006-009>011-018-025>026-241600-
   North Central Minnesota

CITY           SKY/WX    TMP DP  RH WIND       PRES   REMARKS
BAUDETTE       LGT RAIN  38  36  92 SE9       29.84F
FLAG ISLAND    CLOUDY    37  36  93 E8        29.84F FOG
INTL FALLS     LGT RAIN  39  36  89 SE12      29.87F
WASKISH        DRIZZLE   37  37 100 E12       29.82S
BIG FORK       CLOUDY    37  36  93 SE9       29.85S
LONGVILLE      CLOUDY    37  37 100 E5        29.79F FOG
GRAND RAPIDS   CLOUDY    36  34  93 SE10      29.84S
CRANE LAKE     CLOUDY    37  37 100 SE5       29.92F
ORR            CLOUDY    37  34  87 SE6       29.85F
COOK           CLOUDY    37  36  93 SE8G17    29.88F
$$
MNZ012-019>021-037-241600-
   Northeast Minnesota

CITY           SKY/WX    TMP DP  RH WIND       PRES   REMARKS
DULUTH         DRIZZLE   35  33  92 E15       29.88F FOG     WCI  25
ELY            CLOUDY    37  34  87 SE10      29.92S
HIBBING        CLOUDY    37  34  89 SE12      29.87S FOG
EVELETH        CLOUDY    36  36 100 SE8       29.89F
DULUTH HARBOR  MIX PCPN  34  32  93 NE13      29.92F WCI  25
TWO HARBORS    DRIZZLE   36  30  80 E12       29.91F
SILVER BAY     LGT RAIN  34  34 100 E12       29.94F WCI  25
GRAND MARAIS     N/A     37  29  72 NE12      30.02F
G MARAIS ARPRT CLOUDY    37  25  60 E10       29.98F
$$
MNZ029>031-032-039>041-046>048-054>057-064-241600-
   West Central Minnesota

CITY           SKY/WX    TMP DP  RH WIND       PRES   REMARKS
FERGUS FALLS   LGT RAIN  39  37  93 SE8       29.74S
WHEATON        MIX PCPN  43  41  93 CALM      29.79R
MORRIS         RAIN      41  39  93 E5        29.76R
ALEXANDRIA     LGT RAIN  41  39  93 SE8       29.77R FOG
ELBOW LAKE     RAIN      40  39  99 E8        29.76S
WADENA         RAIN      39  37  93 SE8       29.76R
GLENWOOD       RAIN      39  39 100 SE8       29.76R
APPLETON       RAIN      43  41  93 NE5       29.75F
BENSON         LGT RAIN  43  41  93 CALM      29.76R
ORTONVILLE     RAIN      41  39  93 CALM      29.77R
MADISON        RAIN      45  45 100 N6        29.76R
WILLMAR        LGT RAIN  43  41  93 SE9       29.76S
$$
MNZ033>034-036-042>043-049>051-058-059-241600-
   Central Minnesota

CITY           SKY/WX    TMP DP  RH WIND       PRES   REMARKS
ST CLOUD       LGT RAIN  41  38  89 E7        29.78S FOG
SAUK CENTRE    LGT RAIN  40  38  96 SE15      29.76R
PAYNESVILLE    LGT RAIN  40  39  95 E8        29.76S
AITKIN         CLOUDY    41  36  81 E7        29.79F HAZE
PINE RIVER     CLOUDY    39  37  93 SE9G16    29.82F FOG
BRAINERD       CLOUDY    43  37  79 SE12      29.79F HAZE
STAPLES        DRIZZLE   39  37  93 SE7       29.77S
LONG PRAIRIE   CLOUDY    39  37  93 E12       29.76R
LITTLE FALLS   MIX PCPN  37  36  93 E12G21    29.77S
LITCHFIELD     LGT RAIN  43  43 100 E9        29.75F
BUFFALO        RAIN      40  37  90 E7        29.78S
MAPLE LAKE     LGT RAIN  41  40  97 E7        29.78S
$$
MNZ037-044-045-052-053-241600-
   East Central Minnesota

CITY           SKY/WX    TMP DP  RH WIND       PRES   REMARKS
PRINCETON      RAIN      41  37  87 E9        29.80S
MORA           LGT RAIN  37  34  87 E8        29.84S
CAMBRIDGE      RAIN      43  36  75 E6        29.79S
RUSH CITY      LGT RAIN  39  37  92 E7        29.82F
MOOSE LAKE     LGT RAIN  36  34  93 E5        29.84S
HINCKLEY       RAIN      37  37 100 E9        29.84S
CLOQUET        CLOUDY    36  34  93 E9        29.86F
MCGREGOR       CLOUDY    37  36  93 E10       29.83F
$$
MNZ071>073-080-081-089-090-097-098-241600-
   Southwest Minnesota

CITY           SKY/WX    TMP DP  RH WIND       PRES   REMARKS
MONTEVIDEO     LGT RAIN  43  43 100 CALM      29.75S
GRANITE FALLS  LGT RAIN  43  41  93 CALM      29.75R
CANBY          LGT RAIN  41  41  99 NW9       29.76R
MARSHALL       CLOUDY    43  39  87 NW10      29.72S
REDWOOD FALLS  LGT RAIN  44  42  93 SE7       29.72F FOG
OLIVIA         LGT RAIN  43  39  87 E7        29.72F
PIPESTONE      LGT RAIN  45  43  93 NW14      29.71S
WINDOM         CLOUDY    43  43 100 CALM      29.69S FOG
WORTHINGTON    CLOUDY    43  37  81 CALM      29.70F
JACKSON        CLOUDY    43  41  93 SE5       29.68F FOG
TRACY          RAIN      44  43  95 CALM      29.72S
SLAYTON        DRIZZLE   42  42 100 SW3       29.71S
$$
MNZ065>067-074>077-082>085-091>093-241600-
   South Central Minnesota

CITY           SKY/WX    TMP DP  RH WIND       PRES   REMARKS
MANKATO        CLOUDY    43  39  87 SE10      29.72S
NEW ULM        RAIN      43  43 100 SE7       29.72F
ST JAMES       DRIZZLE   43  41  93 E3        29.70F
FAIRMONT       CLOUDY    43  37  81 SE6       29.69F
GLENCOE        LGT RAIN  42  38  88 E6        29.75S
FARIBAULT      DRIZZLE   45  39  81 SE10      29.73F
OWATONNA       LGT RAIN  43  37  81 SE18G28   29.70
WASECA         LGT RAIN  41  36  81 SE14G21   29.72S
ALBERT LEA     MIX PCPN  41  41 100 SE13G24   29.68F
$$
MNZ078>079-086>088-094>096-241600-
   Southeast Minnesota

CITY           SKY/WX    TMP DP  RH WIND       PRES   REMARKS
ROCHESTER      LGT RAIN  40  36  86 SE24G35   29.73S FOG
RED WING       LGT RAIN  43  39  87 SE17G24   29.77S
STANTON        RAIN      42  38  87 SE7       29.74S
DODGE CENTER   LGT RAIN  43  41  93 SE23      29.71F
WINONA         RAIN      41  39  93 SE15G22   29.79F
AUSTIN         LGT RAIN  41  39  93 SE23      29.69F
PRESTON        CLOUDY    39  37  93 SE17      29.75F
$$
ABBREVIATIONS USED IN REMARKS
   TC - TEMPERATURES IN CELSIUS
  WCI - WIND CHILL INDEX
   HX - HEAT INDEX
  VSB - VISIBILITY
$$



USA.gov is the U.S. government's official web portal to all federal, state and local government web resources and services.